1514052000.78,50036,8.0,73166.8,-4.03,-4.69,-4.65,0,*5B
1514052002.03,50037,8.0,73168.0,-4.05,-4.69,-4.69,0,*50
1514052003.28,50038,8.0,73210.3,-4.03,-4.69,-4.69,0,*59
1514052004.5,50039,8.0,73210.8,-4.03,-4.65,-4.69,0,*54
1514052005.73,50040,8.0,73218.3,-4.03,-4.65,-4.69,0,*5A
1514052006.97,50041,8.0,73208.5,-4.03,-4.69,-4.69,0,*57
1514052008.18,50042,8.0,73184.3,-4.03,-4.65,-4.65,0,*54
1514052009.38,50043,8.0,73160.5,-4.03,-4.65,-4.65,0,*55
1514052010.6,50044,8.0,73162.5,-4.03,-4.69,-4.65,0,*5E
1514052011.82,50045,8.0,73156.3,-4.03,-4.69,-4.65,0,*5F
1514052013.02,50046,8.0,73124.0,-4.03,-4.65,-4.65,0,*50
1514052014.23,50047,8.0,73124.5,-4.03,-4.57,-4.65,0,*50
1514052015.45,50048,8.0,73126.3,-4.03,-4.69,-4.65,0,*52
1514052016.67,50049,8.0,73122.0,-4.03,-4.69,-4.65,0,*53
1514052017.92,50050,8.0,73128.0,-4.05,-4.69,-4.69,0,*51
1514052019.17,50051,8.0,73130.8,-4.05,-4.69,-4.73,0,*5B
1514052020.4,50052,8.0,73142.3,-4.03,-4.65,-4.69,0,*59
1514052021.6,50053,8.0,73162.3,-4.03,-4.65,-4.65,0,*54
1514052022.8,50054,8.0,73168.3,-4.03,-4.65,-4.65,0,*53
1514052024.01,50055,8.0,73184.8,-4.03,-4.65,-4.65,0,*52
1514052025.21,50056,8.0,73146.3,-4.05,-4.65,-4.65,0,*57
1514052026.43,50057,8.0,73126.3,-4.03,-4.69,-4.57,0,*5D
1514052027.66,50058,8.0,73126.5,-4.03,-4.65,-4.69,0,*53
1514052028.89,50059,8.0,73124.3,-4.03,-4.65,-4.69,0,*52
1514052030.09,50060,8.0,73134.5,-4.03,-4.65,-4.65,0,*54
1514052031.29,50061,8.0,73144.5,-4.03,-4.65,-4.57,0,*54
1514052032.5,50062,8.0,73098.8,-4.03,-4.65,-4.57,0,*57
1514052033.7,50063,8.0,73078.3,-4.03,-4.65,-4.57,0,*56
1514052034.93,50064,8.0,73122.3,-4.01,-4.57,-4.65,0,*53
1514052036.14,50065,8.0,73152.3,-4.03,-4.65,-4.65,0,*51
1514052037.39,50066,8.0,73154.0,-4.05,-4.69,-4.69,0,*54
1514052038.59,50067,8.0,73138.3,-4.03,-4.65,-4.65,0,*53
1514052039.82,50068,8.0,73128.3,-4.01,-4.65,-4.65,0,*5E
1514052041.02,50069,8.0,73134.0,-4.03,-4.65,-4.65,0,*5D
1514052042.25,50070,8.0,73138.3,-4.03,-4.65,-4.69,0,*59
1514052043.45,50071,8.0,73146.3,-4.03,-4.65,-4.65,0,*54
1514052044.68,50072,8.0,73162.3,-4.01,-4.65,-4.65,0,*55
1514052045.93,50073,8.0,73158.0,-4.05,-4.69,-4.73,0,*5B
1514052047.16,50074,8.0,73158.3,-4.01,-4.65,-4.57,0,*52
1514052048.36,50075,8.0,73134.5,-4.03,-4.65,-4.65,0,*50
1514052049.59,50076,8.0,73126.8,-4.03,-4.65,-4.69,0,*5F
1514052050.8,50077,8.0,73142.3,-4.03,-4.57,-4.65,0,*53
1514052052.02,50078,8.0,73144.3,-4.03,-4.65,-4.69,0,*51
1514052053.25,50079,8.0,73152.8,-4.03,-4.65,-4.69,0,*50
1514052054.45,50080,8.0,73148.0,-4.03,-4.65,-4.65,0,*5A
1514052055.7,50081,8.0,73156.0,-4.01,-4.69,-4.65,0,*55
1514052056.95,50082,8.0,73170.5,-4.01,-4.65,-4.69,0,*56
1514052058.18,50083,8.0,73182.5,-4.01,-4.65,-4.65,0,*5B
1514052059.43,50084,8.0,73194.3,-4.01,-4.69,-4.65,0,*50
1514052060.68,50085,8.0,73206.8,-4.01,-4.65,-4.69,0,*51
1514052061.94,50086,8.0,73186.5,-4.01,-4.65,-4.69,0,*52
1514052063.14,50087,8.0,73140.5,-4.03,-4.65,-4.65,0,*5D
1514052064.36,50088,8.0,73142.5,-4.03,-4.69,-4.65,0,*5E
1514052065.59,50089,8.0,73166.3,-4.03,-4.65,-4.69,0,*5F
1514052066.83,50090,8.0,73164.0,-4.03,-4.69,-4.69,0,*5B
1514052068.06,50091,8.0,73156.0,-4.01,-4.65,-4.65,0,*58
1514052069.31,50092,8.0,73156.3,-4.03,-4.69,-4.69,0,*59
1514052070.56,50093,8.0,73166.0,-4.01,-4.69,-4.65,0,*56
1514052071.78,50094,8.0,73166.5,-4.03,-4.69,-4.65,0,*53
1514052073.0,50095,8.0,73176.8,-4.03,-4.69,-4.65,0,*52
1514052074.23,50096,8.0,73176.5,-4.03,-4.65,-4.69,0,*51
1514052075.45,50097,8.0,73178.0,-4.03,-4.69,-4.65,0,*50
1514052076.7,50098,8.0,73182.3,-4.01,-4.65,-4.69,0,*5D
1514052077.97,50099,8.0,73180.5,-4.01,-4.69,-4.69,0,*50
1514052079.24,50100,8.0,73184.8,-4.01,-4.69,-4.69,0,*51
1514052080.49,50101,8.0,73196.8,-4.01,-4.69,-4.65,0,*5C
1514052081.76,50102,8.0,73172.8,-4.01,-4.69,-4.69,0,*53
1514052083.03,50103,8.0,73156.5,-4.01,-4.69,-4.69,0,*52
1514052084.29,50104,8.0,73146.8,-4.01,-4.65,-4.69,0,*59
1514052085.52,50105,8.0,73150.3,-4.03,-4.65,-4.69,0,*5A
1514052086.76,50106,8.0,73108.0,-4.03,-4.69,-4.69,0,*55
1514052088.01,50107,8.0,73090.3,-4.05,-4.69,-4.73,0,*59
1514052089.23,50108,8.0,73118.8,-4.03,-4.69,-4.65,0,*57
1514052090.47,50109,8.06,73138.3,-4.03,-4.69,-4.69,0,*5A
1514052091.68,50110,8.0,73144.8,-4.03,-4.65,-4.65,0,*52
1514052092.92,50111,8.0,73124.8,-4.03,-4.69,-4.69,0,*53
1514052094.19,50112,8.0,73092.8,-4.01,-4.77,-4.69,0,*5D
1514052095.46,50113,8.0,73124.0,-4.01,-4.69,-4.69,0,*53
1514052096.71,50114,8.0,73116.5,-4.03,-4.69,-4.69,0,*56
1514052097.95,50115,8.0,73114.3,-4.03,-4.69,-4.69,0,*57
1514052099.18,50116,8.0,73096.8,-4.03,-4.65,-4.69,0,*58
1514052100.43,50117,8.0,73062.0,-4.03,-4.69,-4.69,0,*55
1514052101.67,50118,8.0,73062.0,-4.03,-4.69,-4.77,0,*55
1514052102.91,50119,8.0,73056.8,-4.01,-4.69,-4.65,0,*55
1514052104.17,50120,8.0,73058.5,-4.01,-4.65,-4.69,0,*5F
1514052105.4,50121,8.0,73060.3,-4.01,-4.65,-4.65,0,*52
1514052106.62,50122,8.0,73074.0,-4.03,-4.65,-4.69,0,*5F
1514052107.87,50123,8.0,73072.5,-4.03,-4.69,-4.69,0,*52
1514052109.11,50124,8.0,73062.3,-4.03,-4.69,-4.69,0,*55
1514052110.34,50125,8.0,73102.8,-4.03,-4.69,-4.65,0,*58
1514052111.59,50126,8.0,73148.0,-4.05,-4.73,-4.69,0,*5A
1514052112.86,50127,8.0,73132.8,-4.01,-4.69,-4.69,0,*54
1514052114.13,50128,8.0,73150.3,-4.01,-4.69,-4.77,0,*54
1514052115.37,50129,8.0,73120.0,-4.03,-4.69,-4.77,0,*57
1514052116.61,50130,8.0,73144.8,-4.03,-4.69,-4.69,0,*50
1514052117.86,50131,8.0,73148.3,-4.03,-4.77,-4.69,0,*5E
1514052119.13,50132,8.0,73168.5,-4.01,-4.77,-4.69,0,*5F
1514052120.4,50133,8.0,73156.8,-4.01,-4.69,-4.69,0,*51
1514052121.66,50134,8.0,73074.0,-4.01,-4.65,-4.69,0,*5A
1514052122.93,50135,8.0,73084.8,-4.01,-4.69,-4.69,0,*57
1514052124.2,50136,8.0,73060.5,-4.01,-4.69,-4.69,0,*54
1514052125.47,50137,8.0,73110.8,-4.01,-4.69,-4.69,0,*55
1514052126.72,50138,8.0,73104.5,-4.03,-4.69,-4.69,0,*58
1514052127.94,50139,8.0,73112.8,-4.03,-4.65,-4.69,0,*55
1514052129.16,50140,8.0,73114.5,-4.03,-4.69,-4.65,0,*5B
1514052130.37,50141,8.0,73124.5,-4.03,-4.65,-4.65,0,*56
1514052131.61,50142,8.0,73122.8,-4.03,-4.69,-4.69,0,*55
1514052132.86,50143,8.0,73138.5,-4.03,-4.69,-4.69,0,*54
1514052134.08,50144,8.0,73164.5,-4.03,-4.65,-4.69,0,*5F
1514052135.3,50145,8.06,73168.0,-4.03,-4.69,-4.65,0,*5E
1514052136.55,50146,8.0,73166.3,-4.03,-4.69,-4.69,0,*51
1514052137.8,50147,8.0,73152.0,-4.05,-4.69,-4.73,0,*5D
1514052139.04,50148,8.0,73126.0,-4.03,-4.69,-4.69,0,*5F
1514052140.24,50149,8.0,73118.8,-4.03,-4.65,-4.65,0,*5E
1514052141.46,50150,8.0,73110.5,-4.03,-4.69,-4.65,0,*5A
1514052142.71,50151,8.0,73132.5,-4.01,-4.69,-4.65,0,*59
1514052143.94,50152,8.0,73138.5,-4.01,-4.65,-4.65,0,*56
1514052145.19,50153,8.0,73200.0,-4.05,-4.73,-4.73,0,*53
1514052146.39,50154,8.0,73196.0,-4.03,-4.65,-4.65,0,*52
1514052147.64,50155,8.0,73180.3,-4.03,-4.69,-4.69,0,*53
1514052148.87,50156,8.0,73162.5,-4.03,-4.65,-4.69,0,*5C
1514052150.11,50157,8.0,73116.3,-4.03,-4.69,-4.69,0,*51
1514052151.33,50158,8.0,73086.3,-4.03,-4.69,-4.65,0,*52
1514052152.58,50159,8.0,73128.3,-4.01,-4.69,-4.65,0,*51
1514052153.83,50160,8.0,73150.0,-4.01,-4.69,-4.65,0,*5B
1514052155.06,50161,8.0,73160.8,-4.01,-4.65,-4.65,0,*56
1514052156.33,50162,8.0,73132.3,-4.01,-4.69,-4.69,0,*55
1514052157.58,50163,8.0,73156.8,-4.01,-4.69,-4.65,0,*58
1514052158.83,50164,8.0,73164.3,-4.01,-4.65,-4.69,0,*5F
1514052160.06,50165,8.0,73178.8,-4.01,-4.65,-4.65,0,*52
1514052161.33,50166,8.0,73158.8,-4.01,-4.69,-4.69,0,*51
1514052162.56,50167,8.0,73138.8,-4.01,-4.65,-4.65,0,*50
1514052163.78,50168,8.0,73144.3,-4.03,-4.69,-4.65,0,*51
1514052165.03,50169,8.0,73146.0,-4.03,-4.69,-4.69,0,*5C
1514052166.25,50170,8.0,73154.8,-4.03,-4.69,-4.65,0,*58
1514052167.5,50171,8.0,73158.3,-4.01,-4.69,-4.65,0,*5B
1514052168.73,50172,8.0,73144.0,-4.01,-4.65,-4.65,0,*54
1514052169.93,50173,8.0,73158.5,-4.03,-4.65,-4.65,0,*57
1514052171.17,50174,8.0,73154.5,-4.03,-4.69,-4.69,0,*50
1514052172.4,50175,8.0,73120.8,-4.03,-4.69,-4.65,0,*5D
1514052173.6,50176,8.0,73132.5,-4.03,-4.65,-4.65,0,*52
1514052174.85,50177,8.0,73178.0,-4.01,-4.69,-4.65,0,*5D
1514052176.09,50178,8.0,73156.5,-4.01,-4.69,-4.65,0,*52
1514052177.32,50179,8.06,73164.3,-4.01,-4.65,-4.65,0,*5F
1514052178.59,50180,8.0,73152.5,-4.01,-4.69,-4.69,0,*59
1514052179.82,50181,8.0,73140.0,-4.03,-4.69,-4.65,0,*56
1514052181.04,50182,8.0,73142.5,-4.03,-4.65,-4.69,0,*55
1514052182.25,50183,8.0,73176.5,-4.03,-4.65,-4.65,0,*58
1514052183.47,50184,8.0,73170.0,-4.03,-4.65,-4.69,0,*53
1514052184.7,50185,8.0,73090.5,-4.03,-4.65,-4.69,0,*52
1514052185.93,50186,8.0,73090.5,-4.03,-4.65,-4.69,0,*51
1514052187.13,50187,8.0,73090.3,-3.99,-4.65,-4.65,0,*58
1514052188.34,50188,8.0,73106.5,-3.99,-4.61,-4.65,0,*53
1514052189.54,50189,8.0,73130.0,-3.99,-4.61,-4.65,0,*52
1514052190.79,50190,8.0,73084.0,-4.01,-4.69,-4.65,0,*54
1514052192.02,50191,8.0,73112.0,-4.01,-4.65,-4.65,0,*59
1514052193.22,50192,8.0,73128.5,-4.03,-4.65,-4.65,0,*58
1514052194.44,50193,8.0,73148.8,-4.03,-4.69,-4.65,0,*55
1514052195.69,50194,8.0,73152.3,-4.01,-4.69,-4.65,0,*50
1514052196.94,50195,8.0,73158.0,-4.01,-4.69,-4.65,0,*51
1514052198.19,50196,8.0,73158.8,-4.01,-4.69,-4.65,0,*52
1514052199.42,50197,8.0,73170.3,-4.01,-4.65,-4.65,0,*5F
1514052200.65,50198,8.0,73086.5,-4.01,-4.65,-4.65,0,*50
1514052201.88,50199,8.0,73062.5,-4.01,-4.65,-4.65,0,*51
1514052203.12,50200,8.0,73114.3,-4.01,-4.69,-4.65,0,*5E
1514052204.36,50201,8.06,73094.8,-4.01,-4.65,-4.65,0,*53
1514052205.58,50202,8.0,73122.5,-4.03,-4.65,-4.69,0,*5E
1514052206.85,50203,8.0,73120.8,-4.01,-4.69,-4.69,0,*51
1514052208.11,50204,8.0,73116.0,-4.01,-4.65,-4.69,0,*5A
1514052209.31,50205,8.0,73134.5,-4.03,-4.65,-4.65,0,*55
1514052210.56,50206,8.0,73124.0,-4.01,-4.65,-4.69,0,*58
1514052211.81,50207,8.0,73116.3,-4.01,-4.69,-4.65,0,*59
1514052213.06,50208,8.0,73102.5,-4.01,-4.69,-4.65,0,*56
1514052214.29,50209,8.0,73096.5,-4.01,-4.65,-4.65,0,*5B
1514052215.54,50210,8.0,73114.0,-4.01,-4.65,-4.69,0,*5F
1514052216.8,50211,8.0,73124.5,-4.01,-4.65,-4.69,0,*5E
1514052218.05,50212,8.0,73126.0,-4.01,-4.65,-4.69,0,*5D
1514052219.32,50213,8.06,73116.8,-4.01,-4.69,-4.69,0,*50
1514052220.57,50214,8.0,73118.3,-4.01,-4.69,-4.65,0,*5B
1514052221.82,50215,8.0,73148.8,-4.01,-4.69,-4.65,0,*5A
1514052223.07,50216,8.0,73124.5,-4.01,-4.65,-4.69,0,*59
1514052224.33,50217,8.0,73158.5,-4.01,-4.65,-4.69,0,*58
1514052225.53,50218,8.0,73086.0,-3.99,-4.65,-4.65,0,*5D
1514052226.78,50219,8.0,73104.5,-4.01,-4.69,-4.65,0,*56
1514052228.05,50220,8.0,73090.3,-4.01,-4.69,-4.69,0,*50
1514052229.3,50221,8.0,73130.0,-4.01,-4.69,-4.65,0,*5D
1514052230.57,50222,8.0,73146.5,-4.01,-4.69,-4.69,0,*52
1514052231.84,50223,8.0,73110.8,-4.01,-4.69,-4.69,0,*53
1514052233.05,50224,8.0,73114.8,-3.99,-4.65,-4.65,0,*52
1514052234.3,50225,8.06,73092.8,-4.01,-4.69,-4.65,0,*59
1514052235.57,50226,8.0,73172.5,-4.01,-4.69,-4.69,0,*56
1514052236.84,50227,8.06,73180.3,-4.01,-4.69,-4.69,0,*57
1514052238.11,50228,8.0,73164.0,-4.01,-4.69,-4.69,0,*58
1514052239.38,50229,8.0,73182.5,-4.01,-4.77,-4.69,0,*56
1514052240.66,50230,8.0,73196.8,-4.01,-4.69,-4.69,0,*51
1514052241.93,50231,8.0,73184.5,-4.01,-4.77,-4.69,0,*5F
1514052243.17,50232,8.0,73164.3,-4.01,-4.77,-4.65,0,*50
1514052244.44,50233,8.0,73166.5,-4.01,-4.77,-4.69,0,*5D
1514052245.72,50234,8.0,73182.8,-4.01,-4.69,-4.69,0,*55
1514052246.97,50235,8.0,73184.5,-4.01,-4.65,-4.69,0,*58
1514052248.22,50236,8.0,73156.0,-4.01,-4.77,-4.65,0,*54
1514052249.47,50237,8.0,73170.5,-4.01,-4.69,-4.65,0,*5A
1514052250.72,50238,8.0,73162.5,-4.01,-4.65,-4.69,0,*55
1514052251.92,50239,8.0,73170.0,-3.99,-4.65,-4.61,0,*5A
1514052253.18,50240,8.0,73158.5,-4.01,-4.65,-4.69,0,*5A
1514052254.43,50241,8.0,73126.8,-4.01,-4.69,-4.65,0,*5B
1514052255.66,50242,8.0,73112.0,-4.01,-4.65,-4.65,0,*54
1514052256.93,50243,8.0,73068.0,-4.01,-4.69,-4.69,0,*55
1514052258.16,50244,8.0,73128.8,-4.01,-4.65,-4.65,0,*52
1514052259.43,50245,8.0,73148.0,-4.01,-4.69,-4.69,0,*53
1514052260.7,50246,8.06,73120.3,-4.01,-4.69,-4.69,0,*50
1514052261.97,50247,8.0,73074.8,-4.01,-4.69,-4.69,0,*51
1514052263.22,50248,8.0,73106.5,-4.01,-4.69,-4.65,0,*52
1514052264.47,50249,8.0,73120.3,-4.01,-4.69,-4.65,0,*53
1514052265.72,50250,8.0,73124.8,-4.01,-4.69,-4.65,0,*5B
1514052266.99,50251,8.0,73142.0,-4.01,-4.69,-4.69,0,*56
1514052268.24,50252,8.06,73150.0,-4.01,-4.69,-4.65,0,*59
1514052269.48,50253,8.0,73154.8,-4.01,-4.69,-4.65,0,*58
1514052270.71,50254,8.0,73160.5,-4.01,-4.65,-4.65,0,*53
1514052271.96,50255,8.0,73170.5,-4.01,-4.69,-4.65,0,*5E
1514052273.19,50256,8.0,73182.8,-4.01,-4.65,-4.65,0,*51
1514052274.42,50257,8.0,73170.8,-3.99,-4.69,-4.65,0,*5A
1514052275.62,50258,8.0,73148.0,-3.99,-4.61,-4.65,0,*5D
1514052276.88,50259,8.0,73136.0,-4.01,-4.65,-4.69,0,*52
1514052278.13,50260,8.0,73104.8,-4.01,-4.65,-4.69,0,*58
1514052279.34,50261,8.0,73100.8,-3.99,-4.65,-4.65,0,*53
1514052280.56,50262,8.0,73092.3,-4.01,-4.65,-4.65,0,*56
1514052281.8,50263,8.0,73074.8,-4.01,-4.65,-4.65,0,*57
1514052283.03,50264,8.06,73092.5,-4.01,-4.65,-4.65,0,*50
1514052284.28,50265,8.0,73128.0,-4.01,-4.65,-4.69,0,*5D
1514052285.51,50266,8.0,73150.0,-4.01,-4.65,-4.65,0,*52
1514052286.71,50267,8.06,73124.5,-3.99,-4.53,-4.65,0,*50
1514052287.94,50268,8.0,73110.8,-4.01,-4.61,-4.65,0,*58
1514052289.17,50269,8.0,73102.5,-4.01,-4.65,-4.65,0,*5D
1514052290.4,50270,8.06,73116.3,-4.01,-4.65,-4.65,0,*55
1514052291.61,50271,8.0,73116.5,-3.99,-4.61,-4.61,0,*52
1514052292.85,50272,8.0,73154.0,-4.01,-4.69,-4.57,0,*5A
1514052294.09,50273,8.0,73104.3,-4.01,-4.57,-4.65,0,*57
1514052295.32,50274,8.0,73098.0,-4.01,-4.65,-4.57,0,*50
1514052296.55,50275,8.0,73084.5,-4.01,-4.65,-4.65,0,*50
1514052297.78,50276,8.0,73088.5,-4.01,-4.65,-4.65,0,*53
1514052298.98,50277,8.0,73094.3,-3.99,-4.61,-4.61,0,*54
1514052300.19,50278,8.0,73122.3,-3.99,-4.65,-4.61,0,*5F
1514052301.44,50279,8.0,73130.5,-4.01,-4.69,-4.65,0,*50
1514052302.67,50280,8.0,73142.5,-4.01,-4.65,-4.65,0,*5A
1514052303.9,50281,8.0,73122.5,-4.01,-4.65,-4.65,0,*5B
1514052305.1,50282,8.06,73148.8,-3.99,-4.61,-4.61,0,*5E
1514052306.33,50283,8.0,73128.3,-4.01,-4.57,-4.65,0,*58
1514052307.56,50284,8.06,73102.8,-4.01,-4.61,-4.65,0,*5A
1514052308.81,50285,8.0,73092.5,-4.01,-4.69,-4.57,0,*52
1514052310.02,50286,8.0,73084.0,-3.99,-4.61,-4.53,0,*5B
1514052311.25,50287,8.0,73096.0,-4.01,-4.57,-4.57,0,*5D
1514052312.46,50288,8.06,73112.8,-3.99,-4.61,-4.61,0,*54
1514052313.69,50289,8.0,73146.5,-4.01,-4.57,-4.57,0,*53
1514052314.92,50290,8.0,73164.8,-4.01,-4.65,-4.65,0,*5B
1514052316.17,50291,8.0,73176.8,-4.01,-4.69,-4.65,0,*56
1514052317.4,50292,8.06,73172.5,-4.01,-4.65,-4.65,0,*59
1514052318.6,50293,8.0,73198.3,-3.99,-4.65,-4.61,0,*5A
1514052319.81,50294,8.06,73192.0,-3.99,-4.53,-4.53,0,*59
1514052321.01,50295,8.06,73176.0,-3.99,-4.61,-4.53,0,*59
1514052322.22,50296,8.0,73190.5,-3.99,-4.61,-4.53,0,*5A
1514052323.45,50297,8.0,73186.3,-4.01,-4.65,-4.57,0,*5D
1514052324.65,50298,8.06,73186.3,-3.99,-4.61,-4.61,0,*55
1514052325.86,50299,8.0,73214.3,-3.99,-4.53,-4.53,0,*54
1514052327.06,50300,8.0,73212.8,-3.99,-4.53,-4.53,0,*55
1514052328.27,50301,8.0,73216.3,-3.99,-4.61,-4.61,0,*54
1514052329.47,50302,8.06,73204.0,-3.99,-4.61,-4.61,0,*57
1514052330.68,50303,8.0,73188.8,-3.99,-4.61,-4.53,0,*57
1514052331.91,50304,8.06,73154.0,-4.01,-4.65,-4.65,0,*57
1514052333.14,50305,8.0,73080.5,-4.01,-4.65,-4.65,0,*56
1514052334.34,50306,8.0,73056.8,-3.99,-4.61,-4.65,0,*57
1514052335.55,50307,8.0,72978.0,-3.99,-4.61,-4.65,0,*56
1514052336.75,50308,8.0,72940.3,-3.99,-4.61,-4.65,0,*59
1514052337.98,50309,8.06,72838.5,-4.01,-4.65,-4.65,0,*5A
1514052339.19,50310,8.06,73056.5,-3.99,-4.61,-4.61,0,*54
1514052340.41,50311,8.0,73068.0,-3.99,-4.69,-4.65,0,*59
1514052341.62,50312,8.0,73116.3,-3.99,-4.61,-4.61,0,*56
1514052342.82,50313,8.0,73108.0,-3.99,-4.61,-4.65,0,*53
1514052344.07,50314,8.0,73118.8,-4.01,-4.69,-4.65,0,*5A
1514052345.28,50315,8.0,73120.0,-3.99,-4.61,-4.65,0,*55
1514052346.51,50316,8.0,73078.5,-4.01,-4.65,-4.65,0,*54
1514052347.71,50317,8.0,73122.5,-3.99,-4.61,-4.61,0,*53
1514052348.92,50318,8.06,73158.3,-3.99,-4.61,-4.61,0,*5C
1514052350.15,50319,8.0,73124.0,-4.01,-4.65,-4.65,0,*5B
1514052351.38,50320,8.0,73140.5,-4.01,-4.65,-4.65,0,*51
1514052352.61,50321,8.06,73096.5,-4.01,-4.65,-4.65,0,*50
1514052353.81,50322,8.0,73088.5,-3.99,-4.61,-4.61,0,*55
1514052355.02,50323,8.0,73080.0,-3.99,-4.65,-4.61,0,*50
1514052356.23,50324,8.0,73078.3,-3.99,-4.65,-4.65,0,*53
1514052357.43,50325,8.0,73076.3,-3.99,-4.61,-4.65,0,*56
1514052358.64,50326,8.06,73084.0,-3.99,-4.65,-4.65,0,*51
1514052359.84,50327,8.0,73066.8,-3.99,-4.65,-4.61,0,*54
1514052361.05,50328,8.0,73046.3,-3.99,-4.61,-4.65,0,*5B
1514052362.25,50329,8.06,73020.8,-3.99,-4.61,-4.65,0,*5A
1514052363.46,50330,8.0,73040.8,-3.99,-4.65,-4.61,0,*52
1514052364.67,50331,8.0,73036.3,-3.99,-4.61,-4.61,0,*57
1514052365.87,50332,8.0,73100.0,-3.99,-4.61,-4.61,0,*54
1514052367.08,50333,8.0,73158.5,-3.99,-4.61,-4.61,0,*55
1514052368.28,50334,8.0,73166.3,-3.99,-4.65,-4.61,0,*56
1514052369.49,50335,8.0,73146.3,-3.99,-4.65,-4.61,0,*57
1514052370.69,50336,8.0,73164.8,-3.99,-4.61,-4.65,0,*54
1514052371.9,50337,8.0,73178.3,-3.99,-4.61,-4.61,0,*51
1514052373.11,50338,8.06,73176.8,-3.99,-4.65,-4.61,0,*5A
1514052374.33,50339,8.0,73154.0,-4.01,-4.65,-4.65,0,*59
1514052375.56,50340,8.0,73134.8,-4.01,-4.65,-4.65,0,*57
1514052376.77,50341,8.0,73114.8,-3.99,-4.65,-4.61,0,*54
1514052377.97,50342,8.0,73134.3,-3.99,-4.53,-4.61,0,*52
1514052379.18,50343,8.06,73100.3,-3.99,-4.61,-4.61,0,*52
1514052380.38,50344,8.06,73094.5,-3.99,-4.61,-4.61,0,*55
1514052381.59,50345,8.0,73084.5,-3.99,-4.61,-4.61,0,*54
1514052382.8,50346,8.06,73096.3,-3.99,-4.61,-4.61,0,*57
1514052384.0,50347,8.0,73092.3,-3.99,-4.61,-4.61,0,*56
1514052385.2,50348,8.0,73082.5,-3.99,-4.49,-4.61,0,*53
1514052386.41,50349,8.0,73070.5,-3.99,-4.53,-4.61,0,*59
1514052387.61,50350,8.0,73074.5,-3.99,-4.65,-4.61,0,*54
1514052388.82,50351,8.0,73076.3,-3.99,-4.61,-4.61,0,*51
1514052390.02,50352,8.0,73072.8,-3.99,-4.61,-4.53,0,*53
1514052391.23,50353,8.0,73086.5,-3.99,-4.61,-4.61,0,*53
1514052392.43,50354,8.0,73112.0,-3.99,-4.65,-4.65,0,*54
1514052393.64,50355,8.0,73124.5,-3.99,-4.49,-4.53,0,*5E
1514052394.84,50356,8.0,73138.0,-3.99,-4.61,-4.53,0,*57
1514052396.05,50357,8.0,73154.0,-3.99,-4.61,-4.53,0,*56
1514052397.25,50358,8.0,73162.3,-3.99,-4.61,-4.53,0,*59
1514052398.49,50359,8.0,73174.8,-4.01,-4.57,-4.57,0,*5F
1514052399.69,50360,8.0,73172.3,-3.99,-4.61,-4.53,0,*52
1514052400.9,50361,8.0,73158.8,-3.99,-4.61,-4.61,0,*52
1514052402.13,50362,8.0,73150.8,-3.97,-4.53,-4.53,0,*5F
1514052403.36,50363,8.06,73142.0,-3.97,-4.53,-4.53,0,*5E
1514052404.56,50364,8.0,73134.8,-3.99,-4.53,-4.53,0,*57
1514052405.76,50365,8.0,73136.5,-3.99,-4.53,-4.49,0,*5D
1514052406.99,50366,8.0,73134.5,-3.97,-4.53,-4.49,0,*50
1514052408.22,50367,8.0,73176.0,-3.97,-4.53,-4.53,0,*5A
1514052409.45,50368,8.0,73180.5,-3.97,-4.53,-4.49,0,*5E
1514052410.64,50369,8.0,73176.5,-3.99,-4.49,-4.49,0,*5A
1514052411.87,50370,8.0,73152.0,-3.97,-4.61,-4.49,0,*56
1514052413.1,50371,8.06,73132.0,-3.97,-4.53,-4.53,0,*5D
1514052414.33,50372,8.06,73112.3,-3.97,-4.53,-4.49,0,*55
1514052415.56,50373,8.0,73086.0,-3.97,-4.53,-4.53,0,*5F
1514052416.79,50374,8.06,73078.8,-3.97,-4.53,-4.49,0,*53
1514052418.01,50375,8.06,73050.3,-3.97,-4.49,-4.45,0,*55
1514052419.21,50376,8.0,73044.3,-3.95,-4.49,-4.53,0,*53
1514052420.44,50377,8.0,73048.8,-3.97,-4.53,-4.53,0,*5B
1514052421.66,50378,8.0,73078.5,-3.97,-4.49,-4.49,0,*54
1514052422.89,50379,8.0,73096.5,-3.97,-4.53,-4.49,0,*5E
1514052424.12,50380,8.0,73096.8,-3.97,-4.53,-4.53,0,*53
1514052425.35,50381,8.06,73082.5,-3.97,-4.53,-4.49,0,*59
1514052426.58,50382,8.06,73100.3,-3.97,-4.53,-4.53,0,*51
1514052427.77,50383,8.06,73096.5,-3.95,-4.49,-4.45,0,*5E
1514052429.0,50384,8.06,73114.8,-3.97,-4.53,-4.49,0,*5C
1514052430.19,50385,8.0,73122.8,-3.95,-4.53,-4.49,0,*5F
1514052431.42,50386,8.0,73158.0,-3.97,-4.49,-4.49,0,*55
1514052432.61,50387,8.06,73154.8,-3.95,-4.45,-4.45,0,*56
1514052433.8,50388,8.06,73148.3,-3.95,-4.49,-4.45,0,*55
1514052435.02,50389,8.06,73138.5,-3.97,-4.53,-4.49,0,*51
1514052436.25,50390,8.0,73116.5,-3.97,-4.53,-4.53,0,*52
1514052437.45,50391,8.0,73106.5,-3.95,-4.49,-4.45,0,*5D
1514052438.68,50392,8.0,73080.0,-3.97,-4.53,-4.53,0,*50
1514052439.91,50393,8.0,73064.0,-3.97,-4.53,-4.53,0,*51
1514052441.14,50394,8.0,73042.3,-3.97,-4.53,-4.53,0,*56
1514052442.37,50395,8.06,73078.3,-3.97,-4.53,-4.53,0,*57
1514052443.57,50396,8.0,73076.3,-3.95,-4.49,-4.53,0,*5D
1514052444.79,50397,8.0,73038.8,-3.97,-4.49,-4.53,0,*5E
1514052446.02,50398,8.0,73036.3,-3.97,-4.53,-4.49,0,*51
1514052447.25,50399,8.0,73060.5,-3.97,-4.53,-4.49,0,*50
1514052448.48,50400,8.06,73058.5,-3.97,-4.53,-4.53,0,*5C
1514052449.71,50401,8.0,73076.3,-3.97,-4.53,-4.53,0,*5D
1514052450.9,50402,8.06,73108.8,-3.95,-4.49,-4.49,0,*5C
1514052452.13,50403,8.0,73088.5,-3.97,-4.49,-4.53,0,*54
1514052453.36,50404,8.0,73116.5,-3.97,-4.53,-4.53,0,*58
1514052454.56,50405,8.0,73098.0,-3.95,-4.49,-4.49,0,*5B
1514052455.76,50406,8.06,73096.5,-3.95,-4.57,-4.45,0,*5B
1514052456.96,50407,8.0,73108.5,-3.95,-4.57,-4.49,0,*56
1514052458.16,50408,8.0,73132.0,-3.95,-4.49,-4.53,0,*5D
1514052459.39,50409,8.06,73118.3,-3.97,-4.49,-4.53,0,*5E
1514052460.58,50410,8.0,73140.3,-3.95,-4.49,-4.49,0,*5F
1514052461.78,50411,8.0,73104.8,-3.95,-4.49,-4.49,0,*5E
1514052462.97,50412,8.06,73098.5,-3.95,-4.49,-4.49,0,*5D
1514052464.2,50413,8.06,73146.8,-3.93,-4.57,-4.57,0,*5A
1514052465.4,50414,8.06,73170.3,-3.95,-4.49,-4.57,0,*54
1514052466.6,50415,8.06,73154.0,-3.95,-4.49,-4.57,0,*55
1514052467.8,50416,8.0,73188.3,-3.95,-4.57,-4.57,0,*59
1514052469.01,50417,8.06,73170.0,-3.95,-4.57,-4.53,0,*5C
1514052470.24,50418,8.0,73148.3,-3.93,-4.57,-4.49,0,*5E
1514052471.47,50419,8.0,73176.3,-3.97,-4.49,-4.61,0,*5E
1514052472.7,50420,8.06,73166.0,-3.97,-4.53,-4.53,0,*5E
1514052473.89,50421,8.06,73148.0,-3.95,-4.49,-4.49,0,*5D
1514052475.09,50422,8.0,73134.0,-3.95,-4.49,-4.49,0,*5E
1514052476.29,50423,8.06,73140.0,-3.95,-4.61,-4.53,0,*5E
1514052477.52,50424,8.06,73134.5,-3.93,-4.57,-4.57,0,*5E
1514052478.72,50425,8.06,73124.5,-3.95,-4.61,-4.49,0,*53
1514052479.95,50426,8.06,73118.3,-3.97,-4.61,-4.61,0,*58
1514052481.15,50427,8.06,73102.3,-3.95,-4.57,-4.57,0,*5B
1514052482.36,50428,8.0,73104.0,-3.95,-4.57,-4.57,0,*54
1514052483.57,50429,8.06,73116.0,-3.95,-4.57,-4.57,0,*55
1514052484.76,50430,8.06,73148.5,-3.95,-4.49,-4.49,0,*5D
1514052485.96,50431,8.0,73154.8,-3.95,-4.57,-4.49,0,*53
1514052487.16,50432,8.06,73162.3,-3.95,-4.49,-4.49,0,*5F
1514052488.39,50433,8.06,73152.8,-3.97,-4.65,-4.53,0,*59
1514052489.59,50434,8.0,73138.3,-3.95,-4.49,-4.49,0,*59
1514052490.78,50435,8.0,73128.0,-3.95,-4.49,-4.49,0,*58
1514052492.0,50436,8.06,73064.8,-3.93,-4.49,-4.57,0,*52
1514052493.23,50437,8.0,73060.8,-3.93,-4.57,-4.61,0,*59
1514052494.43,50438,8.06,73044.5,-3.95,-4.61,-4.61,0,*55
1514052495.64,50439,8.0,73096.0,-3.95,-4.57,-4.57,0,*54
1514052496.85,50440,8.06,73120.0,-3.95,-4.57,-4.57,0,*5A
1514052498.08,50441,8.0,73126.5,-3.93,-4.57,-4.57,0,*5D
1514052499.28,50442,8.0,73162.8,-3.95,-4.57,-4.57,0,*58
1514052500.49,50443,8.0,73170.3,-3.95,-4.57,-4.61,0,*5C
1514052501.69,50444,8.06,73176.3,-3.95,-4.57,-4.57,0,*5E
1514052502.9,50445,8.06,73186.5,-3.95,-4.61,-4.57,0,*5A
1514052504.1,50446,8.06,73156.5,-3.95,-4.57,-4.49,0,*53
1514052505.31,50447,8.06,73126.8,-3.95,-4.57,-4.57,0,*5D
1514052506.51,50448,8.06,73124.3,-3.95,-4.57,-4.57,0,*52
1514052507.71,50449,8.06,73128.8,-3.95,-4.57,-4.49,0,*5C
1514052508.94,50450,8.0,73104.8,-3.97,-4.53,-4.53,0,*59
1514052510.17,50451,8.06,73108.8,-3.93,-4.49,-4.57,0,*53
1514052511.37,50452,8.0,73100.8,-3.95,-4.57,-4.57,0,*59
1514052512.58,50453,8.0,73150.8,-3.95,-4.57,-4.57,0,*58
1514052513.78,50454,8.0,73142.5,-3.95,-4.57,-4.57,0,*5F
1514052514.99,50455,8.06,73172.5,-3.95,-4.57,-4.57,0,*5E
1514052516.19,50456,8.0,73176.3,-3.95,-4.49,-4.57,0,*52
1514052517.39,50457,8.0,73134.0,-3.95,-4.57,-4.61,0,*59
1514052518.6,50458,8.06,73156.8,-3.95,-4.57,-4.61,0,*56
1514052519.81,50459,8.06,73186.8,-3.95,-4.57,-4.57,0,*52
1514052521.01,50460,8.06,73158.0,-3.95,-4.57,-4.57,0,*58
1514052522.22,50461,8.06,73162.5,-3.95,-4.57,-4.57,0,*59
1514052523.42,50462,8.06,73176.0,-3.95,-4.61,-4.57,0,*5F